RH
88 88 86 92 92 94 98 94 91 94 92 99 100 99 99 94 92 74 73 78 76 97 86 85 84 71 55 56 66 74 65 71 91 84 92 85 87 72 74 67 76 71 77 84 80 82 62 47 35 42 43 45 41 49
89 87 87 90 89 100 93 92 94 80 100 100 99 99 98 93 93 78 76 72 82 89 89 93 90 83 53 45 57 61 62 65 76 81 90 88 91 96 68 59 63 73 61 70 61 62 52 45 40 40 44 44 54 50
93 87 88 90 90 91 93 97 83 95 100 99 99 100 99 93 90 81 80 88 80 85 79 84 87 74 70 54 38 74 84 70 80 79 88 86 84 79 89 78 65 62 62 62 58 53 55 56 52 54 51 53 60 59
79 88 91 88 87 90 85 77 91 100 100 100 100 100 99 91 90 80 74 77 77 88 96 89 85 77 71 60 51 46 63 84 86 87 98 97 92 70 78 61 65 62 61 67 66 58 68 60 67 57 61 70 66 61
99 89 86 78 78 82 97 100 100 100 100 99 100 100 98 95 94 76 68 79 71 99 99 89 80 78 97 74 74 56 80 85 90 95 99 91 84 82 85 76 77 63 63 67 65 52 47 36 52 66 67 72 62 62
97 100 100 100 100 100 100 100 100 100 99 100 99 98 98 86 83 85 99 98 81 97 98 100 89 90 100 100 95 77 67 84 89 90 99 91 87 84 96 82 56 59 63 62 49 62 71 76 72 68 70 70 62 61
98 98 97 98 99 100 100 99 99 100 99 98 97 92 88 84 98 90 92 81 72 92 98 100 99 95 97 95 96 96 91 93 86 94 99 91 95 79 94 83 56 74 73 72 70 70 69 68 70 72 71 71 70 67
94 97 98 99 99 99 99 98 96 95 92 86 84 87 92 92 86 90 97 98 80 83 94 99 100 99 99 100 100 95 100 96 97 95 98 96 98 96 96 70 79 75 75 76 75 73 70 76 77 80 75 74 79 82
83 83 92 96 96 97 98 97 93 94 90 85 88 90 97 90 94 92 99 84 78 84 100 99 100 100 97 99 99 99 98 100 99 100 98 91 100 97 77 75 77 76 72 77 77 76 75 76 80 81 79 77 82 82
88 80 79 78 85 93 95 96 95 90 96 85 82 93 99 84 99 99 100 97 96 97 100 100 99 100 98 100 100 99 100 100 100 98 96 100 98 84 77 73 72 74 78 76 86 90 85 84 82 79 73 72 76 76
95 100 95 75 81 90 83 81 80 77 87 98 98 100 94 86 83 97 100 100 100 100 99 94 96 100 96 99 100 100 100 100 100 99 99 100 98 86 86 84 82 78 74 74 72 72 67 73 77 82 84 85 84 77
97 99 99 94 88 72 87 78 85 92 93 88 89 96 100 93 100 100 99 99 99 93 99 99 98 96 100 94 96 100 100 100 100 96 100 99 92 95 94 93 88 83 79 78 74 74 71 71 74 80 83 86 90 94
98 96 98 100 100 100 100 99 90 95 95 90 93 100 95 100 100 99 97 100 99 99 99 100 100 99 99 96 100 100 99 99 97 100 97 96 97 97 95 87 85 80 80 79 77 79 83 86 89 90 94 98 98 97
91 87 94 94 90 89 82 84 84 80 85 98 99 99 99 100 99 98 95 97 99 100 100 100 100 100 100 100 100 100 100 100 97 96 96 98 98 93 86 84 86 93 93 92 92 90 91 91 95 97 97 98 97 95
89 88 91 96 100 89 93 88 85 89 99 99 100 99 99 99 99 99 100 100 99 99 99 99 99 97 100 100 100 99 98 99 96 98 99 100 98 95 96 95 95 96 96 94 90 92 94 95 94 96 98 97 96 91
92 91 99 96 94 90 84 79 93 98 99 99 97 98 99 99 98 99 99 100 99 100 99 96 100 99 99 94 93 100 95 100 100 100 100 96 96 95 94 95 96 96 95 95 95 95 95 95 95 95 95 91 83 78
84 98 97 95 94 90 86 91 96 99 99 98 98 98 98 98 98 98 99 99 99 100 99 94 98 100 93 95 100 100 100 100 99 98 98 96 94 95 95 94 95 95 94 95 95 95 95 88 76 75 72 74 78 84
100 100 94 89 91 86 98 99 99 99 97 98 97 98 96 97 97 97 98 98 100 100 91 95 84 90 95 94 96 98 97 97 97 96 97 97 96 96 94 94 94 93 93 94 93 94 94 94 92 93 88 83 84 87
97 98 93 96 89 98 99 100 99 96 97 98 98 96 98 97 94 93 91 85 87 82 85 84 87 90 93 93 96 97 97 96 94 95 95 96 96 94 94 94 94 94 94 94 94 94 95 95 92 90 89 93 94 98
100 100 100 100 95 99 99 100 98 94 96 96 96 94 93 96 95 95 88 83 76 84 90 92 92 93 93 94 96 97 96 96 92 92 94 94 96 94 95 91 93 94 94 93 95 96 94 95 98 100 99 98 96 95
97 100 98 94 98 99 100 100 99 99 94 93 92 88 95 86 90 94 93 80 86 94 91 92 94 94 96 96 97 95 95 92 94 90 92 92 95 93 94 96 95 95 92 93 91 94 95 94 97 99 100 100 100 100
72 84 95 99 99 99 96 98 99 100 96 96 96 92 96 94 95 94 71 87 91 92 93 93 93 93 92 93 94 95 96 95 95 94 95 93 91 90 91 94 88 92 94 95 94 97 98 100 100 95 93 98 91 91
56 53 61 72 86 87 98 98 94 97 95 98 94 92 94 94 94 69 93 90 92 92 94 94 95 96 93 96 93 95 96 90 91 93 93 93 94 95 94 96 93 93 94 98 100 100 100 90 84 84 82 82 82 86
50 76 88 90 84 92 90 97 97 96 97 96 95 95 94 94 88 88 92 92 92 92 91 93 93 90 90 87 89 92 95 94 92 94 95 87 88 91 92 95 99 100 100 99 90 84 75 74 72 75 78 78 81 85
82 93 90 98 92 88 95 94 93 91 96 96 94 95 95 92 92 91 92 91 92 93 93 93 91 90 91 92 92 94 98 91 87 89 93 84 84 84 89 93 97 96 72 73 85 86 91 86 86 88 87 88 95 92
94 97 94 97 94 94 95 97 96 98 95 95 95 93 92 91 90 93 89 92 93 91 94 94 92 90 91 92 90 90 96 91 87 94 100 99 93 88 89 89 90 100 98 88 85 90 91 89 87 87 88 92 97 98
98 99 89 70 85 83 93 91 83 90 97 96 94 94 92 93 93 90 90 91 90 96 98 98 96 92 91 93 98 100 83 77 92 100 100 93 89 89 89 98 100 100 100 95 94 95 98 99 99 100 99 96 99 100
96 90 94 97 93 84 98 95 96 97 94 87 82 98 96 95 93 91 91 98 98 99 99 97 96 96 96 96 93 88 86 82 80 78 79 85 92 95 97 97 98 96 94 94 97 100 100 100 100 100 100 100 97 98
100 98 86 98 92 96 96 97 96 89 87 89 96 99 96 88 95 94 98 98 96 98 99 99 92 76 70 68 67 73 88 86 57 84 90 96 98 94 87 82 80 76 74 74 80 96 98 90 91 92 92 93 95 98
100 93 94 98 97 100 99 97 98 96 89 91 85 78 85 93 99 97 93 80 77 84 82 76 74 61 74 70 81 76 71 64 59 61 93 100 99 98 92 91 91 91 92 92 89 87 84 82 80 79 80 80 79 79
96 92 95 96 98 97 96 95 74 74 88 89 88 92 98 96 99 97 96 98 94 80 76 85 86 85 81 81 82 86 100 98 98 95 95 95 93 91 91 92 92 94 96 95 95 94 94 90 88 87 84 84 87 91
99 100 96 100 99 97 96 100 100 98 97 96 98 94 93 93 98 98 97 98 89 86 90 90 90 97 95 91 77 70 77 91 97 98 95 92 89 88 86 88 92 90 89 91 91 92 92 91 89 89 90 93 95 95
98 100 99 99 99 100 98 97 100 99 98 98 98 100 100 96 100 98 97 94 94 96 100 100 98 98 96 88 78 76 81 88 96 97 98 94 92 86 86 87 86 85 87 90 91 90 88 89 91 92 93 93 93 95
Wind_Speed
26 21 9 20 15 29 39 44 47 46 31 64 70 70 65 62 61 44 23 24 20 2 1 2 5 9 14 15 10 5 6 4 2 4 4 4 3 5 5 3 5 7 7 4 3 2 8 7 4 9 7 3 3 7
17 15 15 20 24 31 37 40 42 39 50 65 69 66 62 58 57 42 14 21 16 2 2 2 13 24 18 19 7 12 6 6 7 4 3 3 2 1 6 11 3 4 5 5 9 7 4 11 6 6 4 4 5 8
18 14 19 23 28 30 36 37 39 34 63 65 64 61 57 55 49 39 20 23 11 2 12 10 9 13 12 24 32 5 1 5 5 3 4 3 5 5 4 5 4 4 3 3 2 5 6 5 3 3 5 5 4 5
11 15 19 24 25 28 32 32 30 60 60 59 57 54 51 47 44 34 22 22 17 2 4 6 10 11 20 27 30 17 8 6 5 2 3 3 3 4 5 3 5 3 9 6 3 4 3 6 8 2 4 5 7 9
29 13 13 17 22 24 37 52 55 56 55 54 51 47 45 43 42 29 18 21 31 3 3 3 12 11 12 28 22 22 6 4 2 3 2 3 2 3 0 1 2 5 6 5 7 7 5 6 7 11 10 10 13 13
38 43 45 45 46 51 51 52 51 50 48 47 46 43 41 40 38 25 3 18 32 19 2 2 3 5 12 16 16 15 12 3 2 3 2 1 1 3 4 5 4 5 4 2 3 1 1 3 5 3 7 8 9 12
33 36 40 43 46 48 49 48 47 47 46 44 42 41 43 43 31 5 4 7 40 12 2 3 3 3 6 6 3 3 2 2 2 2 2 3 2 3 1 4 3 2 2 2 3 6 1 3 4 6 11 12 16 16
29 32 34 38 40 43 45 45 45 44 44 44 44 42 41 37 21 4 2 22 30 5 1 3 4 0 2 3 4 2 3 2 2 3 1 3 2 1 3 4 3 4 6 5 4 4 2 9 10 11 13 15 16 14
24 27 31 34 36 38 40 42 44 46 48 44 42 39 31 10 3 5 30 28 8 4 2 3 3 1 3 2 3 3 1 2 1 3 3 4 2 5 5 7 10 12 10 12 8 8 4 8 12 12 14 12 17 15
22 20 25 29 33 36 38 38 39 40 41 41 33 5 4 8 22 33 8 2 2 2 1 2 2 2 1 1 2 3 1 3 4 3 4 3 3 4 3 5 6 4 6 13 9 7 9 9 12 13 9 8 12 14
27 30 24 22 26 31 32 34 35 35 36 9 4 3 10 30 3 3 3 4 3 3 3 2 3 3 4 3 3 2 2 1 4 3 5 2 2 2 8 3 4 7 11 6 3 4 5 10 14 15 13 12 15 17
18 22 29 29 31 30 29 34 34 19 6 7 11 13 9 3 2 3 4 3 2 4 3 4 3 2 1 2 3 2 2 1 3 3 3 3 1 4 3 3 7 8 9 10 9 13 13 14 15 14 13 14 19 22
21 22 24 29 28 32 30 20 12 10 9 5 4 3 3 1 4 4 7 3 4 4 4 3 3 2 2 3 3 2 2 1 1 2 2 2 2 2 5 8 11 11 13 14 16 20 22 22 22 22 18 20 21 21
23 23 23 22 22 21 18 14 12 8 10 3 2 3 2 4 3 3 1 4 2 2 4 4 3 2 2 2 2 2 1 1 2 2 2 2 4 6 8 8 11 12 12 14 14 16 17 20 21 23 23 23 25 19
26 24 22 22 16 12 12 16 11 12 4 2 1 2 1 1 2 1 1 1 3 2 3 3 3 2 2 3 1 2 2 2 3 2 1 3 6 7 9 10 12 12 12 12 13 13 18 22 23 23 21 21 22 21
23 20 17 18 16 10 8 12 14 6 2 2 5 2 3 2 2 3 3 4 4 2 1 2 3 3 2 2 3 4 2 3 2 2 2 5 8 9 10 11 12 12 13 15 19 21 22 22 22 22 22 20 21 21
14 5 18 18 21 16 11 7 5 4 4 4 3 4 3 4 4 3 3 3 3 1 2 2 4 4 1 4 3 3 3 2 2 3 5 7 9 10 12 13 13 18 19 21 23 24 25 25 24 24 20 17 18 18
2 20 26 22 18 8 5 4 2 3 4 4 3 5 6 5 3 5 5 6 1 2 2 3 2 6 4 3 3 2 3 5 6 7 7 8 10 12 16 15 20 23 23 24 25 24 22 19 19 16 17 16 16 14
18 25 29 24 11 6 2 2 2 3 4 2 2 4 3 2 7 8 8 7 5 5 4 4 6 4 3 4 3 3 4 4 7 8 10 15 18 19 21 24 24 24 23 22 21 19 20 18 16 14 12 11 12 10
29 24 21 12 6 3 3 2 3 4 3 2 2 6 4 4 6 6 10 9 7 4 7 5 4 4 3 4 4 4 5 6 7 10 9 8 16 20 19 20 19 22 23 23 21 20 19 19 17 15 14 12 10 8
20 15 13 9 5 8 3 2 3 3 3 3 1 3 4 5 9 7 7 7 7 4 4 4 4 5 8 10 12 14 11 11 8 8 9 9 14 18 19 20 21 21 19 17 16 18 18 16 13 13 14 12 10 8
7 10 5 4 3 2 3 7 2 2 2 3 2 3 3 3 4 7 5 8 4 4 4 4 6 5 9 12 13 19 19 24 23 22 21 19 9 10 14 17 19 18 18 17 17 16 15 12 12 13 13 10 9 9
10 4 5 6 4 5 2 6 4 3 3 2 2 4 3 3 3 4 4 4 3 6 8 6 11 15 14 19 25 27 23 24 18 19 19 20 22 21 21 21 18 17 16 16 14 14 14 13 14 13 12 11 11 11
6 6 5 4 5 2 2 4 3 3 3 3 3 3 3 3 2 4 4 3 4 11 9 11 10 6 11 18 11 17 18 20 23 22 18 20 19 19 20 20 20 18 15 14 15 15 15 14 12 13 13 12 12 12
7 8 5 7 4 5 6 4 5 3 4 4 4 4 3 3 3 4 3 3 5 6 7 11 12 9 8 8 13 18 20 18 18 16 18 18 19 19 20 20 21 18 15 17 15 14 13 12 12 11 12 12 11 12
8 8 5 5 4 4 3 4 4 5 4 4 4 3 2 3 4 4 2 2 3 5 6 7 6 7 8 14 8 13 14 14 19 21 16 14 13 12 11 10 10 11 13 12 11 11 10 10 10 10 11 10 10 9
6 5 3 4 3 3 4 4 4 5 5 4 2 3 3 4 4 3 2 6 3 7 10 13 12 14 12 15 16 17 20 21 22 20 17 21 21 18 16 12 10 7 7 8 7 7 6 6 7 8 9 10 10 10
4 5 5 5 5 5 4 4 5 5 3 3 3 4 3 2 3 2 3 5 9 12 16 20 20 19 19 21 21 22 23 24 25 24 24 22 18 16 14 12 8 6 5 6 6 6 7 7 8 9 9 10 11 11
4 3 4 6 5 6 6 5 4 3 4 1 3 2 3 3 5 3 6 9 12 14 14 15 18 21 22 22 19 15 7 5 4 5 6 3 5 12 11 10 9 10 10 9 7 6 7 8 8 8 8 8 9 10
3 2 4 4 5 6 4 3 2 4 4 3 4 6 4 5 10 12 14 14 16 16 15 15 13 16 17 19 18 19 18 15 12 10 5 4 4 6 7 8 9 9 9 9 9 9 7 8 9 9 9 10 10 11
2 4 5 4 4 1 2 1 14 14 5 6 6 5 4 3 7 16 14 12 14 15 16 16 14 12 13 12 11 10 9 9 10 11 11 9 7 7 7 8 8 8 8 8 8 9 9 10 11 10 10 10 11 11
4 4 4 4 1 2 2 2 2 3 3 3 3 2 2 3 3 4 4 5 9 11 12 11 12 11 10 10 10 9 9 8 8 8 7 7 7 8 9 8 7 8 8 8 8 7 8 8 8 9 9 10 11 11
3 3 3 3 2 1 2 3 4 2 3 2 2 1 1 2 3 2 3 4 5 6 7 8 9 8 7 7 7 7 7 6 4 4 4 5 8 9 8 8 8 7 7 7 7 7 7 7 7 8 9 10 10 11
Wind_Direction
340 343 297 217 185 164 171 170 176 181 201 176 171 172 174 178 182 179 176 180 185 236 210 312 296 187 188 189 179 153 136 214 94 165 155 196 186 221 155 197 202 169 157 176 110 151 249 156 96 179 205 179 196 176
8 40 73 139 148 151 159 168 169 179 177 167 167 169 171 175 179 176 167 191 189 207 302 172 271 288 230 173 152 171 175 158 174 157 187 121 186 183 185 217 178 237 199 184 190 206 210 196 202 192 169 155 193 169
43 74 99 122 138 149 153 153 165 185 163 161 164 166 169 174 175 175 155 154 159 174 280 271 234 250 250 208 195 157 204 168 173 167 156 188 199 140 175 231 171 221 199 191 136 213 224 245 257 231 195 201 165 147
49 85 102 120 130 144 152 164 170 150 152 153 158 163 166 168 170 167 160 173 165 117 247 288 327 240 260 207 198 206 143 105 95 117 156 161 181 188 203 215 198 178 147 161 264 282 284 260 254 264 205 158 130 121
64 95 100 125 132 143 138 135 137 142 148 151 155 158 159 159 159 162 174 181 188 202 204 251 300 246 207 192 191 195 140 124 142 123 137 206 162 146 189 79 227 193 176 160 214 207 188 191 198 171 194 189 160 141
62 71 83 97 106 109 114 121 127 134 139 143 145 148 147 152 153 145 161 211 204 225 342 298 259 248 180 168 179 188 195 157 136 144 192 188 199 177 177 198 232 190 199 131 211 136 124 23 65 101 146 149 138 134
77 85 92 96 102 109 114 121 126 130 134 138 142 150 151 151 153 176 181 190 195 197 277 281 258 241 155 133 134 110 78 151 140 134 187 153 201 163 182 197 191 146 150 192 112 136 7 190 194 124 121 113 107 111
86 87 94 102 109 116 120 124 127 131 136 140 144 147 155 162 157 200 225 156 148 154 179 259 249 264 146 141 118 120 110 94 43 145 103 165 139 168 244 218 149 133 109 95 54 349 26 120 112 112 120 121 109 110
96 103 106 111 114 118 121 125 130 131 136 138 140 148 148 179 134 163 149 144 148 149 212 191 287 329 87 173 109 67 97 140 107 171 209 160 158 217 219 181 185 190 178 157 125 92 133 138 131 130 124 123 119 128
99 107 119 124 127 127 127 129 132 135 135 138 134 143 147 168 123 119 135 77 168 180 324 283 331 290 1 321 82 118 103 148 156 212 127 189 235 280 268 231 214 180 104 121 111 145 149 146 144 142 139 139 127 127
91 78 121 138 138 130 137 137 135 141 140 165 165 151 138 140 92 62 147 183 176 152 195 236 205 318 4 51 108 53 121 284 161 181 167 193 255 282 340 352 68 115 133 86 90 144 167 147 144 127 116 107 113 120
96 83 101 112 125 138 135 137 142 142 196 182 121 111 132 84 74 207 176 138 179 194 178 177 165 161 58 35 78 16 140 232 148 133 138 168 54 319 358 48 81 95 101 91 103 111 113 116 119 113 110 107 107 111
104 100 101 105 106 121 120 111 122 93 108 59 70 118 131 186 189 193 178 176 163 176 189 164 104 120 64 54 73 92 76 293 142 81 128 61 9 56 97 89 80 83 91 95 96 95 96 94 94 100 98 98 101 103
115 115 118 117 106 91 100 67 71 48 48 56 88 121 210 168 214 241 162 144 155 128 106 94 84 98 110 83 90 106 36 294 59 124 54 11 62 66 77 81 93 84 82 86 88 90 90 91 87 84 93 104 105 104
123 126 130 139 127 114 70 50 57 28 52 55 333 108 62 19 27 340 315 95 32 94 95 92 80 85 70 96 39 118 114 56 32 67 3 44 59 69 74 77 83 82 80 81 89 93 92 93 92 89 87 96 103 110
123 116 116 140 145 119 93 64 49 20 37 40 37 14 360 95 29 23 14 63 18 50 65 42 98 82 75 111 66 37 74 46 31 358 42 79 81 77 80 79 80 83 84 87 87 90 91 89 90 92 89 93 100 108
157 128 159 134 120 117 109 64 38 27 14 25 37 17 337 56 34 15 357 341 321 86 79 87 61 48 52 60 56 22 50 18 9 43 57 70 87 90 89 89 88 90 89 90 91 89 91 96 98 92 91 91 95 97
194 152 164 164 138 105 67 55 71 36 43 22 45 11 49 40 339 20 360 357 6 73 48 67 58 46 38 48 44 45 69 59 58 62 66 73 79 82 87 90 90 90 89 88 91 94 96 90 89 94 101 104 99 94
146 153 161 155 137 91 93 100 105 97 47 21 7 360 40 45 29 25 16 8 41 49 80 45 50 42 23 16 351 39 61 71 89 78 70 69 79 85 88 88 88 86 84 84 84 81 80 82 90 98 102 101 94 91
132 126 124 127 111 77 68 50 64 70 67 96 69 33 48 16 1 15 22 16 34 54 48 43 31 2 332 324 332 73 89 93 101 93 77 66 67 75 74 83 83 85 82 81 79 82 82 75 68 74 82 86 90 85
108 95 74 112 55 51 64 23 62 67 93 86 89 43 50 32 32 24 27 1 49 32 67 25 6 17 10 31 44 68 65 75 74 84 93 85 70 77 75 74 80 78 79 78 80 73 72 74 72 73 75 70 74 72
125 124 94 58 80 64 65 10 59 72 73 135 107 59 54 35 24 27 16 35 63 20 2 13 16 33 51 49 55 65 78 81 77 74 72 78 75 69 67 72 79 76 72 74 81 81 77 72 71 70 68 62 57 50
118 94 61 34 79 44 14 352 53 32 66 53 48 51 45 51 41 17 70 41 52 352 358 24 48 46 60 65 66 61 65 80 76 73 74 75 73 71 70 67 73 81 80 73 79 79 76 74 67 65 61 56 50 44
59 56 50 52 36 69 351 32 34 44 54 55 53 74 57 55 50 62 62 42 1 358 20 20 34 59 62 54 50 49 56 75 80 71 72 83 78 68 72 72 70 71 79 86 82 78 72 67 65 65 59 54 45 37
66 3 59 3 356 46 34 24 14 38 63 49 70 56 54 53 67 65 57 26 5 8 10 35 44 52 70 70 61 54 53 73 81 81 66 82 94 92 80 76 71 66 73 80 75 74 71 66 63 59 48 39 32 26
70 15 53 7 8 53 19 49 30 24 33 63 56 63 57 68 67 65 61 31 21 10 5 20 50 68 57 54 68 58 52 72 87 79 60 65 75 90 95 90 83 64 58 61 62 63 58 51 45 37 29 22 15 7
52 17 40 30 354 53 55 36 33 54 55 47 29 48 59 68 77 81 88 23 53 30 42 50 64 75 82 79 75 75 88 91 89 95 93 84 81 81 83 83 77 66 47 36 35 39 39 31 22 11 3 5 5 357
48 36 52 334 53 28 69 43 31 30 31 15 59 46 82 79 86 49 61 81 95 92 85 85 89 92 93 95 97 95 95 99 100 97 90 80 76 74 72 72 70 56 43 36 35 30 19 10 2 356 353 351 348 344
46 348 72 29 42 41 35 30 10 341 333 29 100 92 91 60 359 68 73 102 118 112 100 96 94 100 95 89 84 82 102 140 116 82 76 80 53 47 48 53 55 52 50 49 46 40 19 16 18 14 6 5 6 8
3 21 87 54 52 38 352 360 352 324 21 92 100 108 76 52 28 100 107 107 100 98 103 104 106 101 94 91 84 74 70 71 79 99 123 124 107 58 47 44 36 31 30 31 30 31 28 25 20 21 23 19 15 10
10 65 70 56 83 229 163 23 74 66 43 60 56 81 84 105 66 54 72 93 106 112 112 105 99 95 95 90 88 92 87 75 78 83 85 83 70 54 31 20 14 13 13 12 9 9 10 8 10 12 11 10 8 3
30 60 117 102 177 249 64 48 61 69 24 44 33 62 43 60 67 22 35 112 120 113 113 116 113 111 100 90 79 75 80 93 99 93 75 61 41 19 6 8 11 9 7 7 7 4 358 357 359 358 357 358 357 357
54 51 72 93 75 114 264 89 34 70 35 61 45 89 85 126 148 189 89 97 147 148 141 136 133 117 101 84 75 78 79 86 99 82 58 29 9 4 6 5 3 3 360 357 353 350 348 348 349 350 349 348 348 348